Tracking 29493 objects as of 8-Sep-2024
HD Live streaming from Space Station
objects crossing your sky now

COSMOS 1408 DEB

Track COSMOS 1408 DEB now!
10-day predictions


NORAD ID: 50730
Int'l Code: 1982-092ARE
Perigee: 321.9 km
Apogee: 326.9 km
Inclination: 82.6 °
Period: 90.9 minutes
Semi major axis: 6695 km
RCS: Unknown
Launch date: September 16, 1982
Source: Commonwealth of Independent States (former USSR) (CIS)
Launch site: PLESETSK MISSILE AND SPACE COMPLEX (PKMTR)

Note: This is SATELLITE DEBRIS
Your satellite tracking list
Your tracking list is empty




NASA's NSSDC Master Catalog

Two Line Element Set (TLE):
1 50730U 82092ARE 24251.82339018  .00320391  00000-0  13490-2 0  9991
2 50730  82.5500 159.8491 0003753  37.3940 322.7591 15.84659117152383
Source of the keplerian elements: AFSPC